#timestamp,LO_Frequency,Hit 
1500447615.4,286047043.7,N
1500447635.2,286047045.7,N
1500447655.1,286047045.8,N
1500447656.0,286047045.8,N
1500447675.8,286047043.6,N
1500447695.6,286047043.7,N
1500447715.5,286047044.0,N
1500447735.3,286047043.1,N
1500447755.1,286047046.0,N
1500447775.9,286047043.4,N
1500447795.7,286047043.0,N
1500447815.5,286047045.7,N
1500447835.4,286047047.6,N
1500447855.2,286047043.0,N
1500447875.0,286047044.1,N
1500447875.9,286047044.1,N
1500447895.8,286047043.2,N
1500447915.6,286047047.5,N
1500447935.4,286047047.0,N
1500447955.3,286047045.1,N
1500447975.1,286047048.9,N
1500447976.0,286047048.9,N
1500447995.8,286047050.5,N
1500448015.7,286047052.4,N
1500448035.5,286047052.3,N
1500448055.3,286047051.7,N
1500448075.1,286047054.0,N
1500448095.9,286047053.7,N
1500448115.7,286047052.0,N
1500448135.5,286047051.1,N
1500448155.4,286047052.1,N
1500448175.2,286047051.8,N
1500448195.0,286047049.3,N
1500448195.9,286047049.3,N
1500448215.8,286047050.8,N
1500448235.6,286047048.1,N
1500448255.4,286047048.5,N
1500448275.3,286047048.5,N
1500448295.1,286047046.1,N
1500448315.8,286047046.4,N
1500448335.7,286047047.0,N
1500448355.5,286047047.4,N
1500448375.3,286047046.2,N
1500448395.2,286047048.4,N
1500448415.9,286047049.6,N
1500448435.7,286047051.5,N
1500448455.6,286047052.3,N
1500448475.4,286047050.3,N
1500448495.2,286047048.4,N
1500448515.0,286047049.2,N
1500448516.0,286047049.2,N
1500448535.8,286047046.9,N
1500448555.6,286047047.2,N
1500448575.4,286047043.9,N
1500448595.3,286047042.6,N
1500448615.1,286047040.9,N
1500448635.8,286047040.8,N
1500448655.7,286047037.1,N
1500448675.5,286047036.9,N
1500448695.3,286047036.7,N
1500448715.2,286047035.2,N
1500448735.0,286047037.3,N
1500448735.9,286047037.3,N
1500448755.7,286047037.1,N
1500448775.6,286047036.8,N
1500448795.4,286047037.6,N
1500448815.2,286047035.5,N
1500448835.1,286047035.3,N
1500448836.0,286047035.3,N
1500448855.8,286047031.9,N
1500448875.6,286047031.9,N
1500448895.5,286047034.5,N
1500448915.3,286047035.6,N
1500448935.1,286047033.7,N
1500448955.9,286047034.6,N
1500448975.7,286047034.6,N
1500448995.5,286047034.5,N
1500449015.4,286047033.8,N
1500449035.2,286047035.3,N
1500449055.0,286047037.3,N
1500449055.9,286047037.3,N
1500449075.8,286047036.4,N
1500449095.6,286047036.0,N
1500449115.4,286047036.3,N
1500449135.3,286047033.5,N
1500449155.1,286047034.1,N
1500449156.0,286047034.1,N
1500449175.8,286047034.5,N
1500449195.7,286047033.9,N
1500449215.5,286047033.3,N
1500449235.3,286047033.4,N
1500449255.2,286047036.1,N
1500449275.9,286047035.1,N
1500449295.7,286047035.1,N
1500449315.5,286047036.3,N
1500449335.4,286047034.3,N
1500449355.2,286047031.8,N
1500449375.0,286047034.5,N
1500449376.0,286047034.5,N
1500449395.8,286047034.1,N
1500449415.6,286047032.7,N
1500449435.4,286047031.5,N
1500449455.3,286047028.7,N
1500449475.1,286047030.5,N
1500449495.8,286047032.7,N
1500449515.7,286047032.0,N
1500449535.5,286047032.2,N
1500449555.3,286047032.2,N
1500449575.2,286047031.9,N
1500449595.0,286047032.5,N
1500449595.9,286047032.5,N
1500449615.7,286047032.0,N
1500449635.6,286047034.6,N
1500449655.4,286047034.4,N
1500449675.2,286047034.8,N
1500449695.1,286047032.3,N
1500449696.0,286047032.3,N
1500449715.8,286047030.1,N
1500449735.6,286047028.9,N
1500449755.5,286047029.6,N
1500449775.3,286047029.4,N
1500449795.1,286047029.5,N
1500449815.9,286047026.9,N
1500449835.7,286047031.4,N
1500449855.5,286047028.7,N
1500449875.4,286047031.5,N
1500449895.2,286047031.3,N
1500449915.0,286047028.5,N
1500449915.9,286047028.5,N
1500449935.8,286047029.2,N
1500449955.6,286047027.2,N
1500449975.4,286047025.6,N
1500449995.3,286047025.5,N
1500450015.1,286047024.6,N
1500450016.0,286047024.6,N
1500450035.8,286047024.8,N
1500450055.7,286047024.5,N
1500450075.5,286047022.3,N
1500450095.3,286047020.5,N
1500450115.2,286047020.7,N
1500450135.9,286047021.5,N
1500450155.7,286047019.9,N
1500450175.6,286047019.8,N
1500450195.4,286047021.9,N
1500450215.2,286047020.0,N
1500450235.1,286047019.9,N
1500450236.0,286047019.9,N
1500450255.8,286047017.6,N
1500450275.6,286047018.7,N
1500450295.5,286047015.7,N
1500450315.3,286047017.5,N
1500450335.1,286047017.5,N
1500450355.8,286047019.8,N
1500450375.7,286047017.8,N
1500450395.5,286047020.2,N
1500450415.3,286047020.7,N
1500450435.2,286047019.6,N
1500450455.0,286047019.2,N
1500450455.9,286047019.2,N
1500450475.7,286047019.0,N
1500450495.6,286047021.5,N
1500450515.4,286047019.0,N
1500450535.2,286047019.0,N
1500450555.1,286047022.0,N
1500450556.0,286047022.0,N
1500450575.8,286047019.8,N
1500450595.6,286047015.9,N
1500450615.5,286047017.1,N
1500450635.3,286047012.5,N
1500450655.1,286047011.0,N
1500450675.9,286047011.6,N
1500450695.7,286047011.8,N
1500450715.5,286047009.4,N
1500450735.4,286047012.4,N
1500450755.2,286047009.6,N
1500450775.0,286047010.7,N
1500450775.9,286047010.7,N
1500450795.8,286047010.8,N
1500450815.6,286047012.4,N
1500450835.4,286047011.7,N
1500450855.3,286047009.6,N
1500450875.1,286047010.5,N
1500450876.0,286047010.5,N
1500450895.8,286047010.8,N
1500450915.7,286047007.7,N
1500450935.5,286047010.6,N
1500450955.3,286047008.4,N
1500450975.2,286047008.4,N
1500450995.9,286047007.9,N
1500451015.7,286047007.9,N
1500451035.5,286047008.8,N
1500451055.4,286047006.2,N
1500451075.2,286047007.3,N
1500451095.0,286047005.3,N
1500451096.0,286047005.3,N
1500451115.8,286047005.9,N
1500451135.6,286047002.5,N
1500451155.4,286047000.1,N
1500451175.3,286047000.0,N
1500451195.1,286047000.4,N
